Location: Stamford Observatory
(41.1241°N, 73.5498°W)
Time: 08:00:48
(UTC-04:00)

IRS-P3 - Visible Passes

Search period start: 20 April 2014 00:00
Search period end: 30 April 2014 00:00
Orbit: 815 x 821 km, 98.6° (Epoch: 18 April)

Date Brightness Start Highest point End Pass type
(mag) Time Alt. Az. Time Alt. Az. Time Alt. Az.
20 Apr 5.6 02:03:35 10° NNE 02:07:02 30° ENE 02:07:02 30° ENE visible
20 Apr 5.1 03:43:46 10° N 03:48:21 30° WNW 03:48:21 30° WNW visible
21 Apr 6.1 01:42:46 10° NE 01:45:29 20° ENE 01:45:29 20° ENE visible
21 Apr 4.6 03:22:03 10° N 03:26:48 45° WNW 03:26:48 45° WNW visible
22 Apr 6.6 01:22:32 10° ENE 01:23:55 13° ENE 01:23:55 13° ENE visible
22 Apr 4.3 03:00:30 10° N 03:05:14 65° NNW 03:05:14 65° NNW visible
23 Apr 4.4 02:39:06 10° NNE 02:43:41 63° NE 02:43:41 63° NE visible
23 Apr 5.9 04:20:51 10° NNW 04:23:50 15° WNW 04:25:00 14° WNW visible
24 Apr 5.0 02:17:52 10° NNE 02:22:07 43° ENE 02:22:07 43° ENE visible
24 Apr 5.5 03:58:38 10° NNW 04:02:43 23° WNW 04:03:26 22° WNW visible
25 Apr 5.7 01:56:50 10° NE 02:00:33 28° ENE 02:00:33 28° ENE visible
25 Apr 4.9 03:36:45 10° N 03:41:31 34° WNW 03:41:52 34° WNW visible
26 Apr 6.2 01:36:09 10° NE 01:38:59 19° ENE 01:38:59 19° ENE visible
26 Apr 4.3 03:15:06 10° N 03:20:16 53° WNW 03:20:18 53° WNW visible
27 Apr 6.6 01:16:20 10° ENE 01:17:25 12° E 01:17:25 12° E visible
27 Apr 4.0 02:53:35 10° NNE 02:58:44 80° NW 02:58:44 80° NW visible
27 Apr 6.2 04:36:29 10° NW 04:38:06 11° WNW 04:39:43 10° WNW visible
28 Apr 4.4 02:32:14 10° NNE 02:37:10 63° ENE 02:37:10 63° ENE visible
28 Apr 5.8 04:13:38 10° NNW 04:17:02 18° WNW 04:18:29 16° W visible
29 Apr 5.1 02:11:03 10° NNE 02:15:36 40° E 02:15:36 40° E visible
29 Apr 5.3 03:51:33 10° N 03:55:53 26° WNW 03:56:55 24° W visible
